306  
AXUS43 KGID 240002  
MISGRI  
 
GID CWA HOURLY WEATHER ROUNDUP  
NATIONAL WEATHER SERVICE HASTINGS NE  
700 PM CDT SAT JUL 23 2016  
 
NOTE: "FAIR" INDICATES FEW OR NO CLOUDS BELOW 12,000 FEET WITH NO  
SIGNIFICANT WEATHER AND/OR OBSTRUCTIONS TO VISIBILITY.  
   
..SOUTH CENTRAL NEBRASKA
 
 
 
CITY SKY/WX TMP DP RH WIND PRES REMARKS  
GRAND ISLAND SUNNY 92 73 53 W8 29.80S HX 100  
HASTINGS CLOUDY 93 74 53 NW5 29.80F HX 103  
KEARNEY CLOUDY 93 72 49 NW10 29.83F HX 100  
ORD SUNNY 91 75 59 SW6 29.79S HX 101  
YORK CLOUDY 90 75 62 S6 29.78F HX 100  
AURORA SUNNY 92 74 55 CALM 29.79S HX 102  
LEXINGTON SUNNY 91 74 58 SE6 29.84F HX 100  
HOLDREGE CLOUDY 89 75 62 NW5 29.83S HX 98  
HEBRON MOSUNNY 93 69 44 S13 29.77F HX 97  
   
..NEBRASKA PANHANDLE
 
 
 
CITY SKY/WX TMP DP RH WIND PRES REMARKS  
CHADRON SUNNY 91 46 21 NE18 29.91S  
ALLIANCE CLOUDY 91 54 28 E7 29.94S  
SCOTTSBLUFF CLOUDY 93 58 30 E13 29.94F HX 92  
SIDNEY LGT RAIN 81 50 33 MISG 30.05F  
   
..WESTERN AND NORTH CENTRAL NEBRASKA
 
 
 
CITY SKY/WX TMP DP RH WIND PRES REMARKS  
VALENTINE SUNNY 91 52 26 N17G25 29.87S  
AINSWORTH SUNNY 88 62 42 N17G23 29.86R  
ONEILL SUNNY 94 70 45 NW7 29.78S HX 100  
BROKEN BOW SUNNY 90 74 59 N6 29.84S HX 99  
IMPERIAL SUNNY 94 63 35 NE9 29.89S HX 95  
NORTH PLATTE SUNNY 93 69 45 NE8 29.85S HX 98  
MCCOOK SUNNY 93 70 46 E9 29.84F HX 99  
   
..EASTERN NEBRASKA
 
 
 
CITY SKY/WX TMP DP RH WIND PRES REMARKS  
NORFOLK CLOUDY 89 74 60 SW13 29.76F HX 98  
SO SIOUX CITY CLOUDY 89 77 67 SE8 29.74F HX 101  
TEKAMAH CLOUDY 89 76 65 S6 29.76S HX 100  
COLUMBUS CLOUDY 90 72 55 SW8 29.78F HX 96  
ALBION SUNNY 89 74 60 SW9 29.78F HX 98  
OMAHA EPPLEY MOSUNNY 92 74 55 S16 29.76F HX 101  
OFFUTT AFB SUNNY 91 76 61 S12 29.77F HX 102  
MILLARD SUNNY 91 75 60 S6 29.76F HX 101  
LINCOLN SUNNY 93 74 53 S15G24 29.76F HX 103  
NEBRASKA CITY CLOUDY 87 78 72 S9 29.79F HX 100  
BEATRICE CLOUDY 94 70 45 S16G22 29.78F HX 100  
FALLS CITY CLOUDY 87 77 72 SE8 29.79F HX 99  
   
..NORTHERN KANSAS
 
 
 
CITY SKY/WX TMP DP RH WIND PRES REMARKS  
GOODLAND SUNNY 99 40 13 E14 29.91S HX 94  
HILL CITY SUNNY 100 63 29 N6 29.79F HX 102  
NORTON CLEAR 99 54 22 N9 29.81S HX 96  
SMITH CENTER MOSUNNY 100 64 30 N6 29.77R HX 103  
BELOIT SUNNY 99 66 34 SE10G16 29.75F HX 102  
HAYS SUNNY 102 57 22 S16 29.78S HX 101  
RUSSELL SUNNY 102 56 21 S17 29.78F HX 101  
CONCORDIA SUNNY 92 66 42 S14 29.78F HX 94  
SALINA MOSUNNY 100 63 29 SE13 29.78F HX 102  
TOPEKA PTSUNNY 90 75 61 SE7 29.83F HX 100  
 
CLICK HERE TO GO TO PREVIOUS BULLETINS.

The Nexlab NE Page
The Nexlab KS Page Main Text Page